Home   Weather   Rovaniemi   Past weeks
Flag for Finland

Past Weather in Rovaniemi, Finland — Yesterday and Last 2 Weeks

Now
23 °F

Light snow. Mostly cloudy.


Feels Like: 7 °F
Forecast: 43 / 29 °F
Wind: 23 mph from Southwest

Location: Rovaniemi Airport

Current Time: Feb 22, 2019 at 6:46:14 pm

Latest Report: Feb 22, 2019 at 5:50 pm


Visibility: 2 mi

Pressure: 30.09 "Hg

Humidity: 93%

Dew Point: 21 °F

Location of RovaniemiLocation

Past Weather in Rovaniemi — Graph

°F

Rovaniemi Temperature Yesterday

Maximum temperature yesterday: 10 °F (at 1:50 pm)
Minimum temperature yesterday: 0 °F (at 11:50 pm)
Average temperature yesterday: 5 °F

High & Low Weather Summary for the Past Weeks

 TemperatureHumidityPressure
High37 °F (Feb 15, 1:50 pm)100% (Feb 8, 6:50 pm)30.42 "Hg (Feb 8, 6:50 pm)
Low-4 °F (Feb 22, 5:20 am)59% (Feb 17, 3:50 pm)28.82 "Hg (Feb 16, 8:50 pm)
Average18 °F89%29.50 "Hg
* Reported Feb 7 5:20 pm — Feb 22 5:50 pm, Rovaniemi. Weather by CustomWeather, © 2019

Note: Actual official high and low records may vary slightly from our data, if they occured in-between our weather recording intervals... More about our weather records

Advertising

Rovaniemi Weather History for the Previous 24 Hours

Scroll right to see more
 ConditionsComfort  
Time TempWeatherWind HumidityBarometerVisibility
5:50 pm
Fri, Feb 22
23 °FLight snow. Mostly cloudy.23 mph93%30.09 "Hg2 mi
5:20 pm21 °FIce fog.24 mph93%30.09 "Hg2 mi
4:50 pm21 °FLow clouds.22 mph93%30.12 "Hg6 mi
4:20 pm21 °FSnow flurries. Low clouds.21 mph93%30.15 "Hg4 mi
3:50 pm21 °FIce fog.24 mph93%30.15 "Hg3 mi
3:20 pm21 °FSnow flurries. Mostly cloudy.22 mph93%30.18 "Hg4 mi
2:50 pm21 °FLight snow. Partly sunny.26 mph93%30.18 "HgN/A
1:50 pm19 °FPartly sunny.29 mph93%30.24 "HgN/A
1:20 pm19 °FPartly sunny.25 mph93%30.24 "HgN/A
12:50 pm18 °FBroken clouds.25 mph93%30.27 "HgN/A
12:20 pm16 °FPartly sunny.17 mph93%30.30 "HgN/A
11:50 am10 °FPartly sunny.10 mph92%30.33 "HgN/A
11:20 am9 °FLight snow. Partly sunny.8 mph85%30.36 "HgN/A
10:50 am7 °FLight snow. Partly sunny.10 mph85%30.36 "HgN/A
10:20 am5 °FLight snow. Partly sunny.12 mph85%30.39 "HgN/A
9:50 am1 °FSunny.12 mph85%30.39 "Hg10 mi
9:20 am0 °FSunny.10 mph84%30.39 "Hg10 mi
8:50 am-2 °FSunny.9 mph84%30.42 "Hg10 mi
8:20 am-2 °FSunny.12 mph84%30.42 "Hg10 mi
7:50 am0 °FClear.12 mph84%30.42 "Hg10 mi
7:20 am0 °FClear.14 mph84%30.42 "Hg10 mi
6:50 am-2 °FSnow flurries. Overcast.13 mph84%30.42 "HgN/A
6:20 am-2 °FLight snow. Overcast.15 mph84%30.42 "HgN/A
5:50 am-2 °FClear.14 mph84%30.42 "Hg10 mi
5:20 am-4 °FClear.14 mph92%30.42 "Hg10 mi
4:20 am-2 °FClear.15 mph84%30.42 "Hg10 mi
3:50 am-2 °FClear.15 mph84%30.42 "Hg10 mi
3:20 am0 °FClear.13 mph84%30.42 "Hg10 mi
2:50 am0 °FClear.12 mph84%30.42 "Hg10 mi
2:20 am1 °FClear.12 mph85%30.42 "Hg10 mi
1:50 am0 °FClear.12 mph84%30.42 "Hg10 mi
12:50 am0 °FClear.15 mph92%30.42 "Hg10 mi
12:20 am0 °FClear.14 mph92%30.42 "Hg10 mi
11:50 pm
Thu, Feb 21
0 °FClear.14 mph92%30.39 "Hg10 mi
11:20 pm1 °FClear.14 mph92%30.39 "Hg10 mi
10:50 pm3 °FClear.14 mph85%30.39 "Hg10 mi
10:20 pm3 °FClear.14 mph85%30.39 "Hg10 mi
9:50 pm3 °FClear.13 mph85%30.36 "Hg10 mi
9:20 pm5 °FClear.10 mph85%30.36 "Hg10 mi
8:50 pm1 °FClear.12 mph92%30.36 "Hg10 mi
7:20 pm5 °FClear.9 mph85%30.33 "Hg10 mi
6:50 pm7 °FClear.8 mph85%30.33 "Hg10 mi
6:20 pm9 °FClear.8 mph78%30.30 "Hg10 mi
Weather by CustomWeather, © 2019

See weather overview